This demonstration page uses our WeatherBlox Daily Observations layout. Learn more.

38.89511, -77.03637

Hourly Observations for November 3, 2017

Temp ( °F °C ) Dew Point ( °F °C ) Humidity (%) Winds ( mph kmh ) Pressure ( in mb ) Visibility ( mi km ) Precip ( " mm )
12:56 am 00:56 Clear 59 15.1 56 13.5 90 90 S 8 13 30.16 1021 10 16.0934 0 0
1:56 am 01:56 Clear 62 16.4 58 14.2 87 87 S 10 17 30.14 1021 10 16.0934 0 0
2:56 am 02:56 Clear 61 15.9 57 14.1 89 89 S 8 13 30.14 1021 10 16.0934 0 0
3:56 am 03:56 Clear 59 14.9 56 13.6 92 92 S 7 11 30.11 1020 10 16.0934 0 0
4:56 am 04:56 Clear 59 14.8 57 13.7 93 93 SSW 8 13 30.11 1020 10 16.0934 0 0
5:56 am 05:56 Clear 59 14.9 56 13.4 91 91 SSW 7 11 30.11 1020 10 16.0934 0 0
6:56 am 06:56 Clear 58 14.2 56 13.1 93 93 SSW 7 11 30.1 1019 10 16.0934 0 0
7:56 am 07:56 Sunny 58 14.5 56 13.4 93 93 SSW 6 9 30.09 1019 10 16.0934 0 0
8:56 am 08:56 Sunny 62 16.4 57 13.9 85 85 SW 8 13 30.1 1019 10 16.0934 0 0
9:56 am 09:56 Sunny 66 18.8 57 13.8 73 73 SW 9 15 30.1 1019 10 16.0934 0 0
10:56 am 10:56 Sunny 70 21.3 58 14.4 65 65 SSW 7 11 30.08 1019 10 16.0934 0 0
11:56 am 11:56 Sunny 74 23.1 57 13.8 56 56 WSW 8 13 30.09 1019 10 16.0934 0 0
12:56 pm 12:56 Mostly Sunny 75 23.8 58 14.2 55 55 WSW 6 9 30.06 1018 10 16.0934 0 0
1:56 pm 13:56 Mostly Sunny 78 25.8 58 14.6 50 50 NW 6 9 30.04 1017 10 16.0934 0 0
2:56 pm 14:56 Mostly Sunny 77 25.2 57 14 50 50 NW 6 9 30.04 1017 10 16.0934 0 0
3:39 pm 15:39 Partly Cloudy with Light Drizzle 77 25 57 14 51 51 NW 9 15 30.05 1018 10 16.0934 0 0
3:47 pm 15:47 Mostly Sunny 75 24 59 15 57 57 NNW 9 15 30.05 1018 10 16.0934 0 0
3:56 pm 15:56 Sunny 76 24.4 58 14.5 54 54 NNW 9 15 30.05 1018 10 16.0934 0 0.0254
4:56 pm 16:56 Mostly Cloudy 74 23.2 58 14.5 58 58 NW 9 15 30.07 1018 10 16.0934 0 0
5:56 pm 17:56 Sunny 72 22 58 14.6 63 63 NNW 8 13 30.08 1019 10 16.0934 0 0
6:56 pm 18:56 Cloudy 71 21.4 59 14.8 66 66 N 7 11 30.1 1019 10 16.0934 0 0
7:56 pm 19:56 Mostly Cloudy 69 20.4 58 14.5 69 69 N 8 13 30.12 1020 10 16.0934 0 0
8:56 pm 20:56 Clear 68 20 57 14.1 69 69 N 13 20 30.14 1021 10 16.0934 0 0
9:56 pm 21:56 Clear 65 18.6 55 13 70 70 N 9 15 30.16 1022 10 16.0934 0 0
10:56 pm 22:56 Clear 63 17.1 54 12.2 73 73 N 9 15 30.2 1023 10 16.0934 0 0
11:11 pm 23:11 Mostly Cloudy 63 17 54 12 73 73 NNE 10 17 30.19 1023 10 16.0934 0 0
11:46 pm 23:46 Cloudy 63 17 52 11 68 68 NNE 15 24 30.21 1023 10 16.0934 0 0
11:56 pm 23:56 Mostly Cloudy 61 16.3 51 10.4 68 68 NNE 15 24 30.21 1023 10 16.0934 0 0

Powered by AerisWeather